Location: Central Falls
(41.8900°N, 71.3929°W)
Time: 04:31:29
(UTC+00:00)

Tiros 1 - Pass Details

Date: 08 December 2023
Orbit: 625 x 658 km, 48.4° (Epoch: 01 March)

Event Time Altitude Azimuth Distance (km) Brightness Sun altitude
Rises 07:14:44 0° 220° (SW) 2,955 - -52.1°
Reaches altitude 10° 07:17:08 10° 214° (SSW) 2,052 - -51.6°
Maximum altitude 07:21:38 44° 142° (SE) 908 - -50.8°
Drops below altitude 10° 07:26:11 10° 71° (ENE) 2,073 - -50.0°
Exits shadow 07:28:34 - 65° (ENE) 2,974 11.2 -49.6°
Sets 07:28:36 0° 65° (ENE) 2,989 11.2 -49.6°
